SIC0904 LIMC-EHAM

Flight info

Callsign SIC0904
Flight time 1h 22m
Altitude 34000
Route AOSTA DCT ORSUD DCT MOLUS DCT GILIR DCT PENDU DCT IXILU DCT EPL DCT ROUSY DCT KOMOB DCT BUB Y28 HELEN
Aircraft B77L/H-SDE2E3GHIJ4J5M1P2RWXYZ/LB1D1

Departure

Time 2026-05-03 21:23
Airport Milan Malpensa International Airport (LIMC)

Arrival

Time 2026-05-03 22:45
Airport Amsterdam Airport Schiphol (EHAM)
Time Latitude Longitude Altitude Speed Heading
2026-05-03 21:01 45.61563 8.71995 758 ft 0 kts 259°
2026-05-03 21:13 45.61566 8.72024 752 ft 4 kts 259°
2026-05-03 21:13 45.61571 8.72061 752 ft 4 kts 259°
2026-05-03 21:13 45.61576 8.72095 753 ft 4 kts 254°
2026-05-03 21:14 45.61587 8.72122 752 ft 4 kts 190°
2026-05-03 21:14 45.61612 8.72118 755 ft 3 kts 168°
2026-05-03 21:14 45.61616 8.72117 754 ft 0 kts 169°
2026-05-03 21:17 45.61609 8.72119 752 ft 4 kts 169°
2026-05-03 21:17 45.61527 8.72142 755 ft 14 kts 168°
2026-05-03 21:17 45.61404 8.72177 754 ft 21 kts 170°
2026-05-03 21:18 45.61308 8.72203 754 ft 22 kts 169°
2026-05-03 21:18 45.61160 8.72243 754 ft 22 kts 169°
2026-05-03 21:18 45.61047 8.72312 754 ft 18 kts 116°
2026-05-03 21:18 45.61056 8.72491 756 ft 18 kts 79°
2026-05-03 21:19 45.61080 8.72670 752 ft 18 kts 79°
2026-05-03 21:19 45.61103 8.72855 751 ft 19 kts 79°
2026-05-03 21:19 45.61141 8.73036 754 ft 19 kts 58°
2026-05-03 21:19 45.61245 8.73154 755 ft 19 kts 32°
2026-05-03 21:20 45.61358 8.73254 752 ft 19 kts 22°
2026-05-03 21:20 45.61490 8.73242 755 ft 19 kts 348°
2026-05-03 21:20 45.61599 8.73232 753 ft 13 kts 36°
2026-05-03 21:20 45.61629 8.73355 756 ft 13 kts 78°
2026-05-03 21:21 45.61611 8.73482 752 ft 13 kts 120°
2026-05-03 21:21 45.61587 8.73608 755 ft 14 kts 86°
2026-05-03 21:21 45.61627 8.73726 746 ft 8 kts 20°
2026-05-03 21:21 45.61664 8.73726 745 ft 0 kts 350°
2026-05-03 21:22 45.61671 8.73725 746 ft 10 kts 349°
2026-05-03 21:22 45.62014 8.73628 747 ft 89 kts 348°
2026-05-03 21:22 45.62851 8.73393 747 ft 154 kts 348°
2026-05-03 21:22 45.64047 8.73057 941 ft 184 kts 348°
2026-05-03 21:23 45.65308 8.72738 1596 ft 187 kts 351°
2026-05-03 21:23 45.66619 8.72607 2262 ft 191 kts 358°
2026-05-03 21:23 45.67967 8.72613 2844 ft 200 kts 359°
2026-05-03 21:23 45.69442 8.72610 3150 ft 225 kts 359°
2026-05-03 21:24 45.71042 8.72591 3740 ft 232 kts 357°
2026-05-03 21:24 45.72609 8.72064 4329 ft 239 kts 327°
2026-05-03 21:24 45.73680 8.70299 5017 ft 238 kts 288°
2026-05-03 21:24 45.73790 8.67984 5769 ft 235 kts 253°
2026-05-03 21:25 45.73139 8.65861 6431 ft 233 kts 242°
2026-05-03 21:25 45.72474 8.63734 7112 ft 236 kts 245°
2026-05-03 21:25 45.71830 8.61543 7732 ft 241 kts 245°
2026-05-03 21:25 45.71173 8.59321 8290 ft 248 kts 240°
2026-05-03 21:26 45.70235 8.57114 8585 ft 268 kts 235°
2026-05-03 21:26 45.69199 8.54862 9288 ft 274 kts 235°
2026-05-03 21:26 45.68158 8.52558 10120 ft 277 kts 235°
2026-05-03 21:26 45.67096 8.50214 10703 ft 290 kts 235°
2026-05-03 21:27 45.65954 8.47675 10911 ft 317 kts 236°
2026-05-03 21:27 45.64717 8.44908 11135 ft 343 kts 236°
2026-05-03 21:27 45.63411 8.41979 11788 ft 355 kts 236°
2026-05-03 21:27 45.62015 8.39037 12680 ft 360 kts 231°
2026-05-03 21:28 45.60414 8.36277 13757 ft 360 kts 229°
2026-05-03 21:28 45.59005 8.33325 14435 ft 367 kts 245°
2026-05-03 21:28 45.58434 8.29735 15194 ft 378 kts 265°
2026-05-03 21:28 45.58679 8.25975 16092 ft 385 kts 282°
2026-05-03 21:29 45.59505 8.22316 16862 ft 391 kts 286°
2026-05-03 21:29 45.60406 8.18627 17647 ft 397 kts 286°
2026-05-03 21:29 45.61302 8.14943 18493 ft 400 kts 286°
2026-05-03 21:29 45.62205 8.11169 19278 ft 402 kts 285°
2026-05-03 21:30 45.63098 8.07372 20042 ft 405 kts 285°
2026-05-03 21:30 45.63989 8.03534 20785 ft 409 kts 285°
2026-05-03 21:30 45.64883 7.99654 21462 ft 413 kts 285°
2026-05-03 21:30 45.65786 7.95732 22156 ft 417 kts 285°
2026-05-03 21:31 45.66690 7.91780 22857 ft 420 kts 285°
2026-05-03 21:31 45.67601 7.87799 23563 ft 424 kts 285°
2026-05-03 21:31 45.68525 7.83771 24187 ft 428 kts 285°
2026-05-03 21:31 45.69456 7.79709 24726 ft 433 kts 285°
2026-05-03 21:32 45.70393 7.75598 25301 ft 436 kts 285°
2026-05-03 21:32 45.71334 7.71455 25924 ft 439 kts 285°
2026-05-03 21:32 45.72280 7.67287 26542 ft 442 kts 285°
2026-05-03 21:32 45.73230 7.63089 27149 ft 444 kts 285°
2026-05-03 21:33 45.74184 7.58870 27740 ft 448 kts 285°
2026-05-03 21:33 45.75145 7.54603 28202 ft 453 kts 285°
2026-05-03 21:33 45.76114 7.50303 28699 ft 457 kts 285°
2026-05-03 21:33 45.77094 7.45952 29242 ft 460 kts 285°
2026-05-03 21:34 45.78076 7.41576 29734 ft 463 kts 285°
2026-05-03 21:34 45.79181 7.37253 30171 ft 465 kts 294°
2026-05-03 21:34 45.81003 7.33389 30646 ft 472 kts 309°
2026-05-03 21:34 45.83496 7.30328 31280 ft 472 kts 322°
2026-05-03 21:35 45.86226 7.27707 31785 ft 473 kts 322°
2026-05-03 21:35 45.88952 7.25071 32308 ft 471 kts 322°
2026-05-03 21:35 45.91638 7.22404 32932 ft 468 kts 321°
2026-05-03 21:35 45.94285 7.19713 33533 ft 465 kts 320°
2026-05-03 21:36 45.96913 7.17019 34075 ft 464 kts 320°
2026-05-03 21:36 45.99562 7.14300 34084 ft 469 kts 320°
2026-05-03 21:36 46.04846 7.08885 34092 ft 462 kts 320°
2026-05-03 21:37 46.10068 7.03518 34068 ft 461 kts 320°
2026-05-03 21:37 46.15290 6.98150 34091 ft 461 kts 320°
2026-05-03 21:38 46.20495 6.92778 34084 ft 459 kts 320°
2026-05-03 21:38 46.25707 6.87382 34083 ft 462 kts 320°
2026-05-03 21:39 46.30943 6.81952 34066 ft 465 kts 320°
2026-05-03 21:39 46.36209 6.76478 34072 ft 467 kts 319°
2026-05-03 21:40 46.41486 6.70977 34070 ft 467 kts 319°
2026-05-03 21:40 46.47011 6.65949 34062 ft 473 kts 329°
2026-05-03 21:41 46.52942 6.61826 34070 ft 472 kts 330°
2026-05-03 21:41 46.58873 6.57731 34060 ft 472 kts 329°
2026-05-03 21:42 46.64782 6.53584 34062 ft 471 kts 329°
2026-05-03 21:42 46.70626 6.49444 34078 ft 470 kts 329°
2026-05-03 21:43 46.76515 6.45257 34059 ft 471 kts 329°
2026-05-03 21:43 46.82407 6.41060 34062 ft 472 kts 329°
2026-05-03 21:44 46.88317 6.36841 34060 ft 473 kts 329°
2026-05-03 21:44 46.94238 6.32605 34054 ft 474 kts 329°
2026-05-03 21:45 47.00175 6.28347 34055 ft 475 kts 329°
2026-05-03 21:45 47.06112 6.24079 34049 ft 476 kts 329°
2026-05-03 21:46 47.12070 6.19790 34041 ft 477 kts 329°
2026-05-03 21:46 47.18033 6.15488 34040 ft 478 kts 329°
2026-05-03 21:47 47.23998 6.11174 34034 ft 479 kts 329°
2026-05-03 21:47 47.29982 6.06836 34029 ft 480 kts 329°
2026-05-03 21:48 47.36384 6.03767 34030 ft 491 kts 346°
2026-05-03 21:48 47.43239 6.03214 34036 ft 497 kts 358°
2026-05-03 21:49 47.50168 6.03525 34037 ft 498 kts 358°
2026-05-03 21:49 47.57098 6.03762 34032 ft 498 kts 358°
2026-05-03 21:50 47.64030 6.03919 34032 ft 498 kts 358°
2026-05-03 21:50 47.70950 6.04068 34036 ft 497 kts 358°
2026-05-03 21:51 47.77808 6.04238 34036 ft 496 kts 358°
2026-05-03 21:51 47.84702 6.04458 34026 ft 495 kts 358°
2026-05-03 21:52 47.91577 6.04681 34031 ft 494 kts 358°
2026-05-03 21:52 47.98435 6.04897 34025 ft 493 kts 358°
2026-05-03 21:53 48.05289 6.05110 34021 ft 492 kts 358°
2026-05-03 21:53 48.12130 6.05324 34023 ft 491 kts 358°
2026-05-03 21:54 48.18962 6.05537 34021 ft 491 kts 358°
2026-05-03 21:54 48.25780 6.05752 34022 ft 490 kts 358°
2026-05-03 21:55 48.32595 6.05969 34026 ft 490 kts 358°
2026-05-03 21:55 48.39408 6.06267 34025 ft 490 kts 358°
2026-05-03 21:56 48.46219 6.06606 34022 ft 489 kts 358°
2026-05-03 21:56 48.53025 6.06941 34023 ft 490 kts 358°
2026-05-03 21:57 48.59839 6.07266 34043 ft 491 kts 357°
2026-05-03 21:57 48.66689 6.07589 34034 ft 494 kts 357°
2026-05-03 21:58 48.73579 6.07916 34024 ft 496 kts 357°
2026-05-03 21:58 48.80487 6.08245 34019 ft 498 kts 357°
2026-05-03 21:59 48.87368 6.08575 34018 ft 498 kts 357°
2026-05-03 21:59 48.94297 6.08908 34043 ft 498 kts 357°
2026-05-03 22:00 49.01205 6.09243 34011 ft 496 kts 357°
2026-05-03 22:00 49.08093 6.09575 34013 ft 495 kts 357°
2026-05-03 22:01 49.14966 6.09908 34042 ft 493 kts 357°
2026-05-03 22:01 49.21826 6.10240 34016 ft 492 kts 357°
2026-05-03 22:02 49.28670 6.10572 34005 ft 492 kts 357°
2026-05-03 22:02 49.35504 6.10906 34001 ft 491 kts 357°
2026-05-03 22:03 49.42341 6.11228 34002 ft 490 kts 355°
2026-05-03 22:03 49.45706 6.10791 33984 ft 482 kts 343°
2026-05-03 22:03 49.48891 6.09347 34002 ft 474 kts 332°
2026-05-03 22:04 49.53623 6.05251 33997 ft 462 kts 318°
2026-05-03 22:04 49.58817 5.99392 33997 ft 464 kts 318°
2026-05-03 22:05 49.64075 5.93502 34004 ft 469 kts 319°
2026-05-03 22:05 49.69393 5.87613 34000 ft 472 kts 319°
2026-05-03 22:06 49.74726 5.81725 33984 ft 467 kts 318°
2026-05-03 22:06 49.79940 5.75957 33978 ft 462 kts 318°
2026-05-03 22:07 49.85162 5.70150 33996 ft 463 kts 318°
2026-05-03 22:07 49.90395 5.64313 33991 ft 464 kts 318°
2026-05-03 22:08 49.95640 5.58451 33985 ft 465 kts 318°
2026-05-03 22:08 50.00893 5.52565 33982 ft 466 kts 318°
2026-05-03 22:09 50.06156 5.46651 34008 ft 466 kts 317°
2026-05-03 22:10 50.14034 5.37767 33980 ft 466 kts 317°
2026-05-03 22:10 50.19329 5.31945 33973 ft 466 kts 319°
2026-05-03 22:11 50.24655 5.26217 33967 ft 465 kts 319°
2026-05-03 22:11 50.30007 5.20432 33968 ft 464 kts 318°
2026-05-03 22:12 50.35265 5.14707 33976 ft 463 kts 319°
2026-05-03 22:12 50.40553 5.08924 33966 ft 463 kts 318°
2026-05-03 22:13 50.45842 5.03124 33968 ft 464 kts 317°
2026-05-03 22:13 50.51131 4.97310 33961 ft 464 kts 317°
2026-05-03 22:14 50.56412 4.91488 33963 ft 464 kts 317°
2026-05-03 22:14 50.61699 4.85644 33961 ft 464 kts 317°
2026-05-03 22:15 50.66984 4.79785 33965 ft 465 kts 317°
2026-05-03 22:15 50.72264 4.73913 33961 ft 465 kts 317°
2026-05-03 22:16 50.77500 4.68076 33974 ft 465 kts 317°
2026-05-03 22:16 50.82794 4.62165 33944 ft 454 kts 317°
2026-05-03 22:16 50.85357 4.59297 33486 ft 451 kts 317°
2026-05-03 22:17 50.87834 4.56363 33025 ft 441 kts 311°
2026-05-03 22:17 50.90006 4.53039 32580 ft 428 kts 304°
2026-05-03 22:17 50.91888 4.49464 32098 ft 418 kts 298°
2026-05-03 22:17 50.93452 4.45706 31654 ft 409 kts 293°
2026-05-03 22:18 50.94915 4.41872 31208 ft 405 kts 292°
2026-05-03 22:18 50.96363 4.38055 30755 ft 402 kts 292°
2026-05-03 22:18 50.97799 4.34277 30322 ft 399 kts 292°
2026-05-03 22:18 50.99226 4.30537 29860 ft 397 kts 292°
2026-05-03 22:19 51.00656 4.26802 29351 ft 394 kts 293°
2026-05-03 22:19 51.02073 4.23104 28891 ft 390 kts 293°
2026-05-03 22:19 51.03450 4.19508 28464 ft 387 kts 293°
2026-05-03 22:19 51.04844 4.15867 28016 ft 384 kts 293°
2026-05-03 22:20 51.06225 4.12252 27585 ft 381 kts 294°
2026-05-03 22:20 51.07593 4.08671 27155 ft 378 kts 294°
2026-05-03 22:20 51.09118 4.05237 26721 ft 383 kts 302°
2026-05-03 22:20 51.10929 4.02127 26309 ft 385 kts 309°
2026-05-03 22:21 51.12968 3.99334 25896 ft 388 kts 316°
2026-05-03 22:21 51.15140 3.96804 25490 ft 386 kts 317°
2026-05-03 22:21 51.17312 3.94306 25101 ft 384 kts 317°
2026-05-03 22:21 51.19465 3.91792 24699 ft 382 kts 317°
2026-05-03 22:22 51.21595 3.89280 24299 ft 379 kts 318°
2026-05-03 22:22 51.23920 3.87297 23880 ft 386 kts 338°
2026-05-03 22:22 51.26602 3.86694 23551 ft 394 kts 355°
2026-05-03 22:22 51.29367 3.86662 23150 ft 402 kts 355°
2026-05-03 22:23 51.32169 3.86651 22721 ft 402 kts 356°
2026-05-03 22:23 51.34959 3.86636 22331 ft 399 kts 355°
2026-05-03 22:23 51.37716 3.86607 21953 ft 395 kts 355°
2026-05-03 22:23 51.40449 3.86564 21587 ft 390 kts 355°
2026-05-03 22:24 51.43153 3.86511 21220 ft 386 kts 355°
2026-05-03 22:24 51.45825 3.86452 20872 ft 382 kts 355°
2026-05-03 22:24 51.48472 3.86390 20515 ft 379 kts 355°
2026-05-03 22:24 51.51096 3.86327 20192 ft 376 kts 355°
2026-05-03 22:25 51.53712 3.86264 19841 ft 375 kts 355°
2026-05-03 22:25 51.56321 3.86200 19485 ft 375 kts 355°
2026-05-03 22:25 51.58932 3.86137 19140 ft 375 kts 355°
2026-05-03 22:25 51.61535 3.86075 18800 ft 374 kts 356°
2026-05-03 22:26 51.64138 3.86013 18464 ft 374 kts 356°
2026-05-03 22:26 51.66738 3.85951 18098 ft 373 kts 356°
2026-05-03 22:26 51.69332 3.85891 17701 ft 371 kts 357°
2026-05-03 22:26 51.71861 3.86398 17314 ft 368 kts 17°
2026-05-03 22:27 51.74081 3.88264 16980 ft 366 kts 37°
2026-05-03 22:27 51.75986 3.90959 16668 ft 363 kts 41°
2026-05-03 22:27 51.77848 3.93709 16329 ft 364 kts 42°
2026-05-03 22:27 51.79741 3.96497 15983 ft 364 kts 41°
2026-05-03 22:28 51.81619 3.99247 15641 ft 364 kts 41°
2026-05-03 22:28 51.83478 4.01951 15316 ft 364 kts 41°
2026-05-03 22:28 51.85366 4.04687 14963 ft 364 kts 41°
2026-05-03 22:28 51.87248 4.07413 14626 ft 362 kts 41°
2026-05-03 22:29 51.89110 4.10110 14302 ft 356 kts 40°
2026-05-03 22:29 51.91130 4.12263 13964 ft 343 kts 19°
2026-05-03 22:29 51.93402 4.13061 13758 ft 330 kts 359°
2026-05-03 22:29 51.95657 4.12913 13502 ft 320 kts 352°
2026-05-03 22:30 51.97861 4.12622 13280 ft 317 kts 352°
2026-05-03 22:30 52.00050 4.12346 13056 ft 314 kts 353°
2026-05-03 22:30 52.02215 4.12095 12829 ft 311 kts 353°
2026-05-03 22:30 52.04360 4.11857 12611 ft 308 kts 353°
2026-05-03 22:31 52.06483 4.11776 12380 ft 306 kts
2026-05-03 22:31 52.08514 4.12868 12197 ft 312 kts 24°
2026-05-03 22:31 52.10494 4.14441 12013 ft 320 kts 24°
2026-05-03 22:31 52.12499 4.16001 11771 ft 320 kts 24°
2026-05-03 22:32 52.14500 4.17545 11546 ft 316 kts 24°
2026-05-03 22:32 52.16479 4.19066 11327 ft 312 kts 24°
2026-05-03 22:32 52.18430 4.20560 11108 ft 308 kts 24°
2026-05-03 22:32 52.20360 4.22036 10905 ft 305 kts 24°
2026-05-03 22:33 52.22276 4.23501 10696 ft 303 kts 23°
2026-05-03 22:33 52.24178 4.24954 10495 ft 302 kts 23°
2026-05-03 22:33 52.26086 4.26412 10295 ft 304 kts 24°
2026-05-03 22:33 52.27999 4.27876 10080 ft 302 kts 24°
2026-05-03 22:34 52.29890 4.29325 9839 ft 299 kts 24°
2026-05-03 22:34 52.31753 4.30750 9526 ft 295 kts 23°
2026-05-03 22:34 52.33594 4.32158 9230 ft 290 kts 23°
2026-05-03 22:34 52.35407 4.33545 8926 ft 287 kts 23°
2026-05-03 22:35 52.37214 4.34929 8658 ft 286 kts 23°
2026-05-03 22:35 52.39014 4.36309 8389 ft 286 kts 23°
2026-05-03 22:35 52.40816 4.37692 8111 ft 285 kts 23°
2026-05-03 22:35 52.42610 4.39070 7837 ft 285 kts 24°
2026-05-03 22:36 52.44397 4.40453 7565 ft 284 kts 23°
2026-05-03 22:36 52.46179 4.41836 7293 ft 283 kts 23°
2026-05-03 22:36 52.47952 4.43213 7026 ft 281 kts 23°
2026-05-03 22:36 52.49714 4.44581 6750 ft 279 kts 23°
2026-05-03 22:37 52.51465 4.45943 6459 ft 277 kts 23°
2026-05-03 22:37 52.53200 4.47292 6182 ft 275 kts 23°
2026-05-03 22:37 52.54927 4.48637 5915 ft 273 kts 23°
2026-05-03 22:37 52.56599 4.49982 5635 ft 265 kts 30°
2026-05-03 22:38 52.57868 4.52052 5367 ft 256 kts 63°
2026-05-03 22:38 52.58387 4.54821 5128 ft 249 kts 85°
2026-05-03 22:38 52.58456 4.57660 4905 ft 248 kts 91°
2026-05-03 22:38 52.58443 4.60494 4646 ft 249 kts 92°
2026-05-03 22:39 52.58396 4.63333 4379 ft 245 kts 100°
2026-05-03 22:39 52.57767 4.65780 4150 ft 226 kts 134°
2026-05-03 22:39 52.56729 4.67653 3963 ft 221 kts 135°
2026-05-03 22:39 52.55710 4.69534 3749 ft 221 kts 134°
2026-05-03 22:40 52.54693 4.71408 3520 ft 217 kts 138°
2026-05-03 22:40 52.53458 4.72619 3241 ft 204 kts 175°
2026-05-03 22:40 52.52070 4.72609 3063 ft 202 kts 186°
2026-05-03 22:40 52.50632 4.72496 2798 ft 210 kts 185°
2026-05-03 22:41 52.49210 4.72385 2575 ft 202 kts 186°
2026-05-03 22:41 52.47822 4.72259 2286 ft 196 kts 186°
2026-05-03 22:41 52.46499 4.72137 2084 ft 183 kts 186°
2026-05-03 22:41 52.45283 4.72025 1833 ft 168 kts 186°
2026-05-03 22:42 52.44160 4.71922 1623 ft 159 kts 187°
2026-05-03 22:42 52.43048 4.71817 1448 ft 159 kts 187°
2026-05-03 22:42 52.41967 4.71719 1196 ft 150 kts 186°
2026-05-03 22:42 52.40951 4.71626 1026 ft 145 kts 186°
2026-05-03 22:43 52.39953 4.71531 791 ft 146 kts 186°
2026-05-03 22:43 52.38917 4.71449 594 ft 146 kts 185°
2026-05-03 22:43 52.37901 4.71353 400 ft 145 kts 185°
2026-05-03 22:43 52.36904 4.71271 188 ft 145 kts 185°
2026-05-03 22:44 52.35913 4.71174 26 ft 141 kts 184°
2026-05-03 22:44 52.35002 4.71086 3 ft 117 kts 183°
2026-05-03 22:44 52.34316 4.71024 1 ft 82 kts 183°
2026-05-03 22:44 52.33858 4.70986 4 ft 57 kts 183°
2026-05-03 22:45 52.33524 4.70953 3 ft 34 kts 183°
2026-05-03 22:45 52.33335 4.71053 3 ft 26 kts 134°
2026-05-03 22:45 52.33216 4.71268 4 ft 25 kts 130°
2026-05-03 22:45 52.33100 4.71487 4 ft 25 kts 131°
2026-05-03 22:46 52.32991 4.71712 4 ft 25 kts 106°
2026-05-03 22:46 52.32963 4.71992 4 ft 25 kts 127°
2026-05-03 22:46 52.32847 4.72211 4 ft 25 kts 133°
2026-05-03 22:46 52.32730 4.72425 4 ft 25 kts 131°
2026-05-03 22:47 52.32606 4.72631 4 ft 25 kts 139°
2026-05-03 22:47 52.32465 4.72826 4 ft 30 kts 140°
2026-05-03 22:47 52.32327 4.73021 4 ft 25 kts 139°
2026-05-03 22:47 52.32193 4.73210 4 ft 25 kts 137°
2026-05-03 22:48 52.32071 4.73414 4 ft 25 kts 120°
2026-05-03 22:48 52.32051 4.73699 4 ft 25 kts 92°
2026-05-03 22:48 52.32039 4.73988 2 ft 25 kts 95°
2026-05-03 22:48 52.32027 4.74264 3 ft 22 kts 105°
2026-05-03 22:49 52.31943 4.74334 3 ft 22 kts 182°
2026-05-03 22:49 52.31736 4.74315 4 ft 22 kts 183°
2026-05-03 22:49 52.31633 4.74305 4 ft 22 kts 183°
2026-05-03 22:49 52.31479 4.74291 4 ft 22 kts 183°
2026-05-03 22:50 52.31324 4.74277 4 ft 22 kts 183°
2026-05-03 22:50 52.31165 4.74263 3 ft 24 kts 182°
2026-05-03 22:50 52.30983 4.74247 3 ft 28 kts 183°
2026-05-03 22:50 52.30788 4.74228 3 ft 28 kts 184°
2026-05-03 22:51 52.30592 4.74208 4 ft 28 kts 182°
2026-05-03 22:51 52.30397 4.74206 4 ft 28 kts 164°
2026-05-03 22:51 52.30258 4.74425 15 ft 28 kts 131°
2026-05-03 22:51 52.30131 4.74661 14 ft 27 kts 131°
2026-05-03 22:52 52.30006 4.74890 4 ft 23 kts 131°
2026-05-03 22:52 52.29901 4.75088 4 ft 23 kts 131°
2026-05-03 22:52 52.29798 4.75265 4 ft 18 kts 152°
2026-05-03 22:52 52.29676 4.75312 4 ft 18 kts 154°
2026-05-03 22:53 52.29562 4.75425 2 ft 21 kts 147°
2026-05-03 22:53 52.29445 4.75573 3 ft 22 kts 112°
2026-05-03 22:53 52.29495 4.75794 3 ft 17 kts 68°
2026-05-03 22:53 52.29536 4.75966 3 ft 16 kts 61°
2026-05-03 22:54 52.29565 4.76048 3 ft 4 kts 59°
2026-05-03 22:54 52.29596 4.76128 5 ft 14 kts 57°
2026-05-03 22:54 52.29621 4.76221 3 ft 6 kts 104°
2026-05-03 22:54 52.29590 4.76268 3 ft 6 kts 148°
2026-05-03 22:55 52.29559 4.76300 3 ft 0 kts 148°
2026-05-03 22:55 52.29558 4.76301 3 ft 0 kts 148°